Hourly Data Report for February 10, 2020

All times are specified in Local Standard Time (LST). Add 1 hour to adjust for Daylight Saving Time where and when it is observed.

OTTAWA INTL A
ONTARIO
Current Station Operator: NAVCAN

45°19'00.000" N
75°40'00.000" W
114.90 m
6106001
71628
YOW

Download Data

Hourly Data (February 2020)
Hourly Data Report for February 10, 2020
TIME Temp Definition
°C
Dew Point Definition
°C
Rel Hum Definition
%
Wind Dir Definition
10's deg

Wind Spd Definition
km/h
Visibility Definition
km
Stn Press Definition
kPa
Hmdx Definition


Wind Chill Definition


Weather Definition


00:00 -10.3 -12.0 88 6 16 2.4 100.72   -17 Snow
01:00 -9.7 -11.3 88 6 17 2.4 100.53   -17 Snow
02:00 -8.8 -10.3 89 7 18 2.4 100.37   -16 Snow
03:00 -8.0 -9.3 90 7 16 3.2 100.20   -15 Snow
04:00 -7.0 -8.2 91 6 17 2.4 100.01   -13 Snow
05:00 -7.0 -8.2 92 4 18 3.2 99.96   -14 Snow
06:00 -7.1 -8.2 91 4 17 8.1 99.91   -14 Snow
07:00 -7.0 -8.2 91 4 13 8.1 99.91   -13 Snow
08:00 -6.8 -8.0 91 3 13 8.1 99.97   -12 Snow
09:00 -6.6 -8.0 90 3 12 9.7 100.02   -12 Snow
10:00 -6.0 -7.5 89 6 4 9.7 100.04   -8 Snow
11:00 -4.7 -6.5 87 30 6 9.7 100.10   -7 Snow
12:00 -3.7 -5.5 87 30 13 24.1 100.15   -9 LegendNANA
13:00 -2.3 -4.6 85 30 12 24.1 100.16   -7 Mostly Cloudy
14:00 -1.0 -4.3 78 28 12 24.1 100.23   -5 LegendNANA
15:00 -0.6 -4.3 76 24 18 24.1 100.29   -6 LegendNANA
16:00 -1.3 -4.6 78 25 12 24.1 100.37   -5 Clear
17:00 -2.3 -5.3 80 25 12 24.1 100.46   -7 LegendNANA
18:00 -3.4 -5.8 83 26 14 24.1 100.52   -8 LegendNANA
19:00 -3.7 -5.3 88 24 7 24.1 100.57   -7 Clear
20:00 -6.1 -7.0 93 22 4 24.1 100.59   -8 LegendNANA
21:00 -8.7 -9.7 93 18 5 24.1 100.57   -11 LegendNANA
22:00 -9.4 -10.7 90 19 4 24.1 100.55   -12 Clear
23:00 -9.1 -10.2 92 22 5 24.1 100.56   -12 LegendNANA

Notes on Data Quality.

Legend

  • E = Estimated
  • M = Missing
  • NA = Not Available*
  • [empty] = Indicates an unobserved value
Date modified: